Overview Statistics Trail Chart Weather Telemetry Raw packets
 

This is the latest recevied weather packets stored in our database for station/object N2VUZ-1. If no packets are shown the sender has not sent any weather packets the latest 10 day(s).

<< 24 25 26 27 28 29 30 >>
Time Temp. Humidity Pressure Rain* Wind** Luminosity Snow
1788119961 30° C 51% 1018.6 hPa 0 mm - - -
1788119661 30° C 54% 1018.6 hPa 0 mm - - -
1788119361 30° C 53% 1018.7 hPa 0 mm - - -
1788119061 30° C 53% 1018.7 hPa 0 mm - - -
1788118761 30° C 53% 1018.9 hPa 0 mm - - -
1788118461 29.44° C 54% 1018.7 hPa 0 mm - - -
1788118161 30° C 51% 1018.8 hPa 0 mm - - -
1788117861 30° C 50% 1019.1 hPa 0 mm - - -
1788117561 30° C 52% 1019.1 hPa 0 mm - - -
1788117261 29.44° C 50% 1019.1 hPa 0 mm - - -
1788116961 29.44° C 53% 1019.2 hPa 0 mm - - -
1788116661 30° C 56% 1019.2 hPa 0 mm - - -
1788116361 29.44° C 59% 1019.3 hPa 0 mm - - -
1788116061 30° C 60% 1019.4 hPa 0 mm - - -
1788115761 30° C 59% 1019.4 hPa 0 mm - - -
1788115461 30° C 61% 1019.7 hPa 0 mm - - -
1788115161 30° C 60% 1019.7 hPa 0 mm - - -
1788114861 30° C 61% 1019.6 hPa 0 mm - - -
1788114561 30° C 61% 1019.7 hPa 0 mm - - -
1788114261 30° C 61% 1019.7 hPa 0 mm - - -
1788113961 29.44° C 60% 1019.8 hPa 0 mm - - -
1788113661 30° C 61% 1019.9 hPa 0 mm - - -
1788113361 30° C 61% 1020 hPa 0 mm - - -
1788113068 29.44° C 61% 1020.1 hPa 0 mm - - -
1788112761 29.44° C 60% 1020.3 hPa 0 mm - - -

* Rain latest hour (hover to see other rain measurements)
** Current wind speed in m/s (hover to see current wind gust speed)